Weather History for KDEC - February, 2013

Change the Weather History Date:

Saturday, February 2, 2013

  Actual Average Record
Temperature  
Mean Temperature 24 °F 28 °F  
Max Temperature 31 °F 36 °F 26 °F (2014)
Min Temperature 17 °F 20 °F 10 °F (2014)
Degree Days  
Heating Degree Days 41 37  
Month to date heating degree days 92 74  
Since 1 July heating degree days 3119 3381  
Cooling Degree Days 0 0  
Month to date cooling degree days 0 0  
Year to date cooling degree days 0 0  
Moisture  
Dew Point 17 °F    
Average Humidity 76    
Maximum Humidity 88    
Minimum Humidity 63    
Precipitation  
Precipitation 0.01 in 0.06 in 0.00 in (2015)
Month to date precipitation 0.01 0.11  
Year to date precipitation 2.16 1.85  
Sea Level Pressure  
Sea Level Pressure 30.13 in    
Wind  
Wind Speed 11 mph (WSW)    
Max Wind Speed 20 mph    
Max Gust Speed 25 mph    
Visibility 7 miles    
Events Snow    
T = Trace of Precipitation, MM = Missing Value Source: NWS Daily Summary

Daily Weather History Graph

Daily Weather History Graph

Search for Another Location

Airport or City:

Trip Planner

Search our weather history database for the weather conditions in past years. The results will help you decide how hot, cold, wet, or windy it might be!

Date:

Astronomy

Feb. 02, 2013 Rise Set
Actual Time 7:02 AM CST 5:16 PM CST
Civil Twilight 6:33 AM CST 5:45 PM CST
Nautical Twilight 6:01 AM CST 6:17 PM CST
Astronomical Twilight 5:30 AM CST 6:48 PM CST
Moon No Moon Rise 10:13 AM CST (2/2)
Length of Visible Light 11h 11m
Length of Day
10h 14m
Waning Gibbous, 59% of the Moon is Illuminated
Feb 2
Waning Gibbous
Feb 3
Last Quarter
Feb 10
New
Feb 17
First Quarter
Feb 25
Full

Hourly Weather History & Observations

Time (CST) Temp. Windchill Dew Point Humidity Pressure Visibility Wind Dir Wind Speed Gust Speed Precip Events Conditions
12:22 AM 21.2 °F 8.3 °F 17.6 °F 86% 30.18 in 0.8 mi South 13.8 mph - 0.00 in Snow Light Snow
12:36 AM 21.2 °F 8.3 °F 17.6 °F 86% 30.18 in 1.0 mi SSW 13.8 mph - 0.00 in Snow Light Snow
12:47 AM 21.2 °F 8.9 °F 17.6 °F 86% 30.18 in 1.2 mi SSW 12.7 mph - 0.00 in Snow Light Snow
12:54 AM 21.9 °F 8.7 °F 18.0 °F 85% 30.21 in 1.8 mi SSW 15.0 mph - 0.00 in Snow Light Snow
1:00 AM 21.2 °F 8.9 °F 17.6 °F 86% 30.18 in 3.0 mi SSW 12.7 mph - 0.00 in Snow Light Snow
1:18 AM 23.0 °F 11.1 °F 17.6 °F 80% 30.19 in 2.0 mi SW 12.7 mph - 0.00 in Snow Light Snow
1:26 AM 23.0 °F 10.1 °F 19.4 °F 86% 30.19 in 1.5 mi SW 15.0 mph 21.9 mph 0.00 in Snow Light Snow
1:54 AM 23.0 °F 12.4 °F 19.0 °F 85% 30.20 in 1.5 mi SSW 10.4 mph - 0.00 in Snow Light Snow
2:26 AM 23.0 °F 12.4 °F 19.4 °F 86% 30.17 in 3.0 mi SSW 10.4 mph - 0.00 in Snow Light Snow
2:42 AM 21.2 °F 10.9 °F 19.4 °F 93% 30.16 in 10.0 mi SSW 9.2 mph - 0.00 in   Overcast
2:54 AM 21.9 °F 9.8 °F 19.0 °F 89% 30.18 in 10.0 mi SSW 12.7 mph - 0.00 in   Mostly Cloudy
3:54 AM 23.0 °F 12.4 °F 19.0 °F 85% 30.14 in 10.0 mi South 10.4 mph - N/A   Overcast
4:54 AM 24.1 °F 12.5 °F 16.0 °F 71% 30.12 in 9.0 mi SSW 12.7 mph - N/A   Overcast
6:54 AM 25.0 °F 13.1 °F 16.0 °F 69% 30.09 in 10.0 mi SW 13.8 mph - N/A   Overcast
7:54 AM 27.0 °F 17.3 °F 17.1 °F 66% 30.09 in 8.0 mi WSW 10.4 mph - N/A   Overcast
8:12 AM 26.6 °F 17.5 °F 17.6 °F 69% 30.05 in 2.0 mi SW 9.2 mph - 0.00 in Snow Light Snow
8:21 AM 26.6 °F 17.5 °F 17.6 °F 69% 30.05 in 8.0 mi WSW 9.2 mph - 0.00 in   Overcast
8:54 AM 28.0 °F 20.0 °F 18.0 °F 66% 30.08 in 10.0 mi WSW 8.1 mph - 0.00 in   Overcast
9:54 AM 30.0 °F 21.1 °F 19.9 °F 66% 30.08 in 10.0 mi West 10.4 mph - N/A   Overcast
10:54 AM 30.9 °F 21.2 °F 23.0 °F 72% 30.07 in 10.0 mi WNW 12.7 mph 20.7 mph 0.01 in   Overcast
11:54 AM 30.0 °F 20.0 °F 21.9 °F 72% 30.06 in 10.0 mi WNW 12.7 mph 19.6 mph N/A   Overcast
12:54 PM 30.0 °F 19.1 °F 21.9 °F 72% 30.06 in 10.0 mi WNW 15.0 mph - N/A   Overcast
1:54 PM 30.0 °F 20.0 °F 21.0 °F 69% 30.07 in 10.0 mi WNW 12.7 mph - N/A   Overcast
2:54 PM 28.9 °F 16.9 °F 19.9 °F 69% 30.08 in 10.0 mi WNW 17.3 mph 20.7 mph N/A   Overcast
3:54 PM 26.1 °F 13.6 °F 19.0 °F 75% 30.12 in 7.0 mi NW 16.1 mph 23.0 mph N/A   Overcast
4:54 PM 23.0 °F 11.1 °F 17.1 °F 78% 30.13 in 5.0 mi NW 12.7 mph 19.6 mph N/A   Haze
5:54 PM 21.9 °F 10.4 °F 15.1 °F 75% 30.15 in 8.0 mi WNW 11.5 mph - N/A   Overcast
6:42 PM 21.2 °F 9.5 °F 12.2 °F 68% 30.12 in 10.0 mi NW 11.5 mph - N/A   Overcast
6:54 PM 21.0 °F 9.3 °F 14.0 °F 74% 30.15 in 10.0 mi NW 11.5 mph - N/A   Overcast
7:54 PM 19.9 °F 10.1 °F 12.0 °F 71% 30.15 in 10.0 mi NW 8.1 mph - N/A   Mostly Cloudy
8:54 PM 19.9 °F 10.1 °F 10.9 °F 68% 30.14 in 10.0 mi NW 8.1 mph - N/A   Overcast
9:54 PM 18.0 °F 12.7 °F 10.0 °F 71% 30.13 in 10.0 mi NW 3.5 mph - N/A   Scattered Clouds
10:54 PM 19.0 °F 13.9 °F 10.9 °F 71% 30.11 in 10.0 mi WNW 3.5 mph - N/A   Overcast
11:54 PM 19.0 °F - 10.0 °F 68% 30.09 in 10.0 mi Calm Calm - N/A   Mostly Cloudy